Miscellaneous Local Product
Issued by NWS Hastings, NE

Home | Current Version | Previous Version | Text Only | Print | Product List | Glossary Off
Versions: 1 2 3 4 5 6 7 8 9 10 11 12 13 14 15 16 17 18 19 20 21 22 23 24 25 26 27 28 29 30 31 32 33 34 35 36 37 38 39 40 41 42 43 44 45 46 47 48 49 50

509
AXUS43 KGID 270102
MISGRI

GID CWA HOURLY WEATHER ROUNDUP
NATIONAL WEATHER SERVICE HASTINGS NE
800 PM CDT WED JUL 26 2017

NOTE: "FAIR" INDICATES FEW OR NO CLOUDS BELOW 12,000 FEET WITH NO
SIGNIFICANT WEATHER AND/OR OBSTRUCTIONS TO VISIBILITY.

...SOUTH CENTRAL NEBRASKA...

CITY           SKY/WX    TMP DP  RH WIND       PRES   REMARKS
GRAND ISLAND   CLOUDY    77  74  90 NE9       30.04R
HASTINGS       CLOUDY    77  71  82 NE8       30.04S
KEARNEY        CLOUDY    77  70  79 NE9       30.06R
ORD            CLOUDY    78  71  79 NE3       30.05R
YORK           CLOUDY    75  73  94 CALM      30.02S
AURORA         CLOUDY    76  73  89 NE7       30.03S
LEXINGTON      MOCLDY    78  69  74 E9        30.07R
HOLDREGE       CLOUDY    76  69  79 NE9       30.06R
HEBRON         CLOUDY    76  73  88 NE9       29.99S

...NEBRASKA PANHANDLE...

CITY           SKY/WX    TMP DP  RH WIND       PRES   REMARKS
CHADRON        CLOUDY    82  50  32 SE12      30.13S
ALLIANCE       CLOUDY    78  59  51 NE16      30.16S
SCOTTSBLUFF    CLOUDY    81  58  45 NE10      30.17S
SIDNEY         CLOUDY    80  60  50 E13       30.19R

...WESTERN AND NORTH CENTRAL NEBRASKA...

CITY           SKY/WX    TMP DP  RH WIND       PRES   REMARKS
VALENTINE      CLOUDY    83  54  36 NE15      30.10S
AINSWORTH      CLOUDY    78  65  65 E8        30.11S
ONEILL         CLOUDY    78  64  60 NE5       30.08R
BROKEN BOW     CLOUDY    79  68  69 E7        30.08R
IMPERIAL       SUNNY     78  63  59 E7        30.12R
NORTH PLATTE   CLOUDY    80  67  64 NE6       30.09R
MCCOOK         CLOUDY    79  68  69 E10       30.07R

...EASTERN NEBRASKA...

CITY           SKY/WX    TMP DP  RH WIND       PRES   REMARKS
NORFOLK        CLOUDY    80  69  69 NE5       30.03R
SO SIOUX CITY  PTCLDY    82  72  71 NE7       29.99S
TEKAMAH        CLOUDY    79  73  82 CALM      29.98S
COLUMBUS       CLOUDY    77  74  90 E3        30.02R
ALBION         RAIN      78  74  88 CALM      30.05S
OMAHA EPPLEY   MOCLDY    77  73  87 N3        29.98S
OFFUTT AFB     MOCLDY    76  74  93 NE3       29.97F
MILLARD        CLOUDY    78  76  94 CALM      29.98S
LINCOLN        CLOUDY    77  73  87 NE6       29.99F
NEBRASKA CITY  DRIZZLE   76  76 100 NE3       29.97F
BEATRICE       CLOUDY    76  74  95 NE8       29.97F
FALLS CITY     LGT RAIN  77  76  96 CALM      29.95F

...NORTHERN KANSAS...

CITY           SKY/WX    TMP DP  RH WIND       PRES   REMARKS
GOODLAND       MOSUNNY   78  66  66 NE15      30.12R
HILL CITY      CLOUDY    82  73  74 NE18G24   30.03R
NORTON         CLOUDY    75  64  69 N12       30.05
PHILLIPSBURG   CLOUDY    81  70  69 NE13G21   30.01S
SMITH CENTER     N/A     75  68  78 NE12G20   30.00S
HAYS           CLEAR     87  73  62 NE18G24   29.94R HX  94
RUSSELL        PTCLDY    86  74  67 NE14G23   29.93R HX  94
CONCORDIA      MOCLDY    80  74  81 E7        29.96F
SALINA         CLOUDY    89  72  56 NE6       29.91S HX  96
TOPEKA         CLOUDY    77  77 100 NE7       29.92F



USA.gov is the U.S. government's official web portal to all federal, state and local government web resources and services.